FW6253 Weather Reports


Display with metric or nautical units.
time (UTC)temp
F
wind
direction
speed
MPH
gust
MPH
rain 1hr
in
rain 24hr
in
rain mn
in
humidity
%
barometer
mb
20260905232551 98 108 2.0 9.0 0.00 0.00 0.00 42 1009.6
20260905232052 98 142 4.0 9.0 0.00 0.00 0.00 42 1009.5
20260905231608 98 136 4.0 9.0 0.00 0.00 0.00 42 1009.5
20260905231054 99 0 1.0 5.0 0.00 0.00 0.00 41 1009.5
20260905230554 98 113 1.0 7.0 0.00 0.00 0.00 40 1009.4
20260905230108 98 163 1.0 7.0 0.00 0.00 0.00 41 1009.4
20260905225552 98 182 1.0 5.0 0.00 0.00 0.00 41 1009.4
20260905225052 98 157 0.0 5.0 0.00 0.00 0.00 42 1009.5
20260905224617 98 157 2.0 8.0 0.00 0.00 0.00 42 1009.6
20260905224052 98 0 2.0 8.0 0.00 0.00 0.00 41 1009.7
20260905223552 98 106 3.0 8.0 0.00 0.00 0.00 41 1009.7
20260905223116 98 113 2.0 7.0 0.00 0.00 0.00 42 1009.6
20260905222552 98 57 2.0 6.0 0.00 0.00 0.00 42 1009.6
20260905222051 98 138 0.0 9.0 0.00 0.00 0.00 44 1009.7
20260905221603 98 94 1.0 9.0 0.00 0.00 0.00 43 1009.8
20260905221053 98 74 3.0 7.0 0.00 0.00 0.00 42 1009.8
20260905220554 99 117 0.0 9.0 0.00 0.00 0.00 42 1009.9
20260905220105 99 0 1.0 9.0 0.00 0.00 0.00 43 1009.9
20260905215555 99 128 1.0 9.0 0.00 0.00 0.00 43 1009.9
20260905215055 99 113 3.0 12.0 0.00 0.00 0.00 44 1010.0
20260905214605 99 126 2.0 12.0 0.00 0.00 0.00 43 1009.9
20260905214054 100 123 2.0 11.0 0.00 0.00 0.00 42 1009.9
20260905213552 100 154 2.0 7.0 0.00 0.00 0.00 43 1009.9
20260905213105 99 80 1.0 6.0 0.00 0.00 0.00 43 1009.9
20260905212552 99 128 1.0 5.0 0.00 0.00 0.00 43 1009.9
20260905212051 99 123 2.0 8.0 0.00 0.00 0.00 43 1010.1
20260905211605 99 200 2.0 10.0 0.00 0.00 0.00 43 1010.0
20260905211051 98 69 4.0 10.0 0.00 0.00 0.00 44 1010.1
20260905210553 98 193 3.0 9.0 0.00 0.00 0.00 44 1010.2
20260905210107 99 227 3.0 9.0 0.00 0.00 0.00 41 1010.1
20260905205554 98 109 1.0 9.0 0.00 0.00 0.00 44 1010.3
20260905205052 98 121 3.0 11.0 0.00 0.00 0.00 43 1010.3
20260905204555 98 135 4.0 11.0 0.00 0.00 0.00 45 1010.4
20260905204052 99 161 2.0 7.0 0.00 0.00 0.00 44 1010.5
20260905203552 98 0 3.0 9.0 0.00 0.00 0.00 44 1010.6
20260905203103 98 108 3.0 9.0 0.00 0.00 0.00 45 1010.8
20260905202551 97 219 1.0 10.0 0.00 0.00 0.00 46 1010.9
20260905202052 97 290 5.0 10.0 0.00 0.00 0.00 45 1010.9
20260905201612 98 211 3.0 10.0 0.00 0.00 0.00 46 1011.1
20260905201051 98 209 3.0 11.0 0.00 0.00 0.00 47 1011.1
20260905200553 97 71 2.0 11.0 0.00 0.00 0.00 47 1011.3
20260905200105 97 159 4.0 11.0 0.00 0.00 0.00 47 1011.4
20260905195554 97 197 2.0 8.0 0.00 0.00 0.00 48 1011.5
20260905195054 97 196 2.0 8.0 0.00 0.00 0.00 48 1011.6
20260905194557 96 0 3.0 8.0 0.00 0.00 0.00 47 1011.6
20260905194052 96 0 3.0 10.0 0.00 0.00 0.00 47 1011.8
20260905193551 96 198 3.0 10.0 0.00 0.00 0.00 49 1011.8
20260905193107 95 144 1.0 10.0 0.00 0.00 0.00 49 1011.9
20260905192552 95 107 3.0 11.0 0.00 0.00 0.00 50 1012.0
20260905192051 95 205 3.0 11.0 0.00 0.00 0.00 50 1012.0
20260905191608 95 199 4.0 11.0 0.00 0.00 0.00 51 1012.1
20260905191055 95 160 4.0 11.0 0.00 0.00 0.00 53 1012.2
20260905190554 95 286 4.0 10.0 0.00 0.00 0.00 53 1012.2
20260905190106 95 135 3.0 10.0 0.00 0.00 0.00 54 1012.4
20260905185552 95 219 2.0 11.0 0.00 0.00 0.00 53 1012.4
20260905185052 95 103 3.0 11.0 0.00 0.00 0.00 54 1012.6
20260905184611 95 116 2.0 8.0 0.00 0.00 0.00 55 1012.7
20260905184052 95 158 2.0 11.0 0.00 0.00 0.00 55 1012.8
20260905183552 95 165 3.0 11.0 0.00 0.00 0.00 54 1012.8
20260905183105 94 121 0.0 7.0 0.00 0.00 0.00 54 1013.0
20260905182553 94 159 2.0 10.0 0.00 0.00 0.00 56 1013.1
20260905182052 94 143 3.0 10.0 0.00 0.00 0.00 58 1013.1
20260905181604 93 100 2.0 9.0 0.00 0.00 0.00 59 1013.2
20260905181052 93 130 2.0 9.0 0.00 0.00 0.00 58 1013.2
20260905180554 93 290 1.0 8.0 0.00 0.00 0.00 58 1013.3
20260905180108 92 225 3.0 8.0 0.00 0.00 0.00 58 1013.4
20260905175551 92 72 1.0 6.0 0.00 0.00 0.00 60 1013.5
20260905175054 91 137 2.0 8.0 0.00 0.00 0.00 62 1013.5
20260905174606 91 105 1.0 8.0 0.00 0.00 0.00 64 1013.5
20260905174053 90 113 3.0 8.0 0.00 0.00 0.00 63 1013.6
20260905173552 90 198 2.0 6.0 0.00 0.00 0.00 62 1013.7
20260905173130 89 130 1.0 6.0 0.00 0.00 0.00 67 1013.6
20260905172552 89 128 1.0 7.0 0.00 0.00 0.00 69 1013.7
20260905172052 89 171 1.0 7.0 0.00 0.00 0.00 69 1013.8
20260905171558 89 182 1.0 9.0 0.00 0.00 0.00 68 1013.9
20260905171052 89 158 3.0 9.0 0.00 0.00 0.00 68 1014.0
20260905170552 89 111 1.0 9.0 0.00 0.00 0.00 70 1014.0
20260905170115 89 160 3.0 9.0 0.00 0.00 0.00 71 1014.1
20260905165551 88 0 2.0 6.0 0.00 0.00 0.00 71 1014.0
20260905165051 87 121 2.0 5.0 0.00 0.00 0.00 73 1014.1
20260905164609 87 141 2.0 6.0 0.00 0.00 0.00 74 1014.2
20260905164051 86 0 1.0 7.0 0.00 0.00 0.00 75 1014.2
20260905163551 86 149 4.0 8.0 0.00 0.00 0.00 75 1014.2
20260905163117 85 220 2.0 8.0 0.00 0.00 0.00 76 1014.2
20260905162552 85 175 2.0 8.0 0.00 0.00 0.00 77 1014.2
20260905162052 85 164 2.0 6.0 0.00 0.00 0.00 77 1014.2
20260905161616 85 200 1.0 8.0 0.00 0.00 0.00 78 1014.3
20260905161052 84 146 2.0 8.0 0.00 0.00 0.00 78 1014.3
20260905160551 84 173 2.0 8.0 0.00 0.00 0.00 79 1014.3
20260905160106 84 148 2.0 7.0 0.00 0.00 0.00 79 1014.3
20260905155554 84 205 2.0 7.0 0.00 0.00 0.00 80 1014.3
20260905155051 84 107 2.0 9.0 0.00 0.00 0.00 80 1014.3
20260905154616 84 123 0.0 9.0 0.00 0.00 0.00 81 1014.3
20260905154051 83 142 2.0 6.0 0.00 0.00 0.00 81 1014.2
20260905153552 83 178 2.0 6.0 0.00 0.00 0.00 81 1014.2
20260905153105 83 132 2.0 7.0 0.00 0.00 0.00 82 1014.1
20260905152552 83 121 2.0 7.0 0.00 0.00 0.00 82 1014.0
20260905152051 83 227 1.0 7.0 0.00 0.00 0.00 82 1014.0
20260905151603 83 149 3.0 7.0 0.00 0.00 0.00 82 1014.1
20260905151053 83 219 3.0 7.0 0.00 0.00 0.00 82 1014.0
20260905150553 83 205 2.0 9.0 0.00 0.00 0.00 82 1014.0
20260905150109 83 192 3.0 9.0 0.00 0.00 0.00 84 1014.0
20260905145551 82 150 3.0 9.0 0.00 0.00 0.00 85 1014.0
20260905145052 82 150 2.0 9.0 0.00 0.00 0.00 88 1014.0
20260905144602 81 224 0.0 6.0 0.00 0.00 0.00 89 1013.9
20260905144051 81 0 2.0 8.0 0.00 0.00 0.00 90 1013.8
20260905143552 80 159 2.0 8.0 0.00 0.00 0.00 91 1013.9
20260905143109 80 167 0.0 7.0 0.00 0.00 0.00 92 1013.9
20260905142555 80 168 2.0 7.0 0.00 0.00 0.00 92 1013.9
20260905142053 79 118 2.0 6.0 0.00 0.00 0.00 92 1013.9
20260905141604 79 167 1.0 6.0 0.00 0.00 0.00 93 1013.9
20260905141051 79 145 2.0 6.0 0.00 0.00 0.00 93 1013.9
20260905140552 79 167 2.0 6.0 0.00 0.00 0.00 93 1013.7
20260905140110 78 134 0.0 3.0 0.00 0.00 0.00 93 1013.6
20260905135553 78 138 0.0 3.0 0.00 0.00 0.00 93 1013.7
20260905135051 78 138 0.0 3.0 0.00 0.00 0.00 93 1013.7
20260905134602 78 0 0.0 3.0 0.00 0.00 0.00 93 1013.6
20260905134051 78 136 0.0 4.0 0.00 0.00 0.00 93 1013.5
20260905133554 78 0 1.0 4.0 0.00 0.00 0.00 93 1013.4
20260905133105 78 138 0.0 2.0 0.00 0.00 0.00 93 1013.5
20260905132554 78 0 0.0 2.0 0.00 0.00 0.00 93 1013.4
20260905132054 78 140 0.0 1.0 0.00 0.00 0.00 93 1013.4
20260905131608 78 0 0.0 1.0 0.00 0.00 0.00 93 1013.3
20260905131052 77 0 0.0 1.0 0.00 0.00 0.00 93 1013.3
20260905130552 77 0 0.0 1.0 0.00 0.00 0.00 93 1013.2
20260905130104 77 0 0.0 2.0 0.00 0.00 0.00 93 1013.1
20260905125553 77 0 0.0 2.0 0.00 0.00 0.00 93 1013.1
20260905125053 77 0 0.0 2.0 0.00 0.00 0.00 93 1013.1
20260905124601 77 0 0.0 1.0 0.00 0.00 0.00 92 1013.0
20260905124053 77 0 0.0 2.0 0.00 0.00 0.00 92 1012.9
20260905123554 77 0 0.0 2.0 0.00 0.00 0.00 92 1012.8
20260905123109 77 0 0.0 2.0 0.00 0.00 0.00 92 1012.9
20260905122552 77 0 0.0 0.0 0.00 0.00 0.00 92 1012.8
20260905122055 77 0 0.0 0.0 0.00 0.00 0.00 92 1012.8
20260905121557 77 0 0.0 0.0 0.00 0.00 0.00 92 1012.8
20260905121052 77 0 0.0 0.0 0.00 0.00 0.00 92 1012.8
20260905120552 77 0 0.0 0.0 0.00 0.00 0.00 92 1012.9
20260905120106 77 0 0.0 0.0 0.00 0.00 0.00 92 1012.8
20260905115553 77 0 0.0 0.0 0.00 0.00 0.00 92 1012.8
20260905115055 77 0 0.0 0.0 0.00 0.00 0.00 92 1012.7
20260905114603 77 0 0.0 0.0 0.00 0.00 0.00 92 1012.7
20260905114051 77 0 0.0 0.0 0.00 0.00 0.00 92 1012.8
20260905113553 77 0 0.0 0.0 0.00 0.00 0.00 92 1012.8
20260905113054 78 0 0.0 0.0 0.00 0.00 0.00 92 1012.7
20260905112553 78 0 0.0 1.0 0.00 0.00 0.00 91 1012.6
20260905112055 78 0 0.0 2.0 0.00 0.00 0.00 92 1012.6
20260905111558 78 0 0.0 2.0 0.00 0.00 0.00 92 1012.5
20260905111052 78 0 0.0 2.0 0.00 0.00 0.00 92 1012.6
20260905110551 78 0 0.0 2.0 0.00 0.00 0.00 91 1012.6
20260905110100 78 0 0.0 2.0 0.00 0.00 0.00 91 1012.6
20260905105553 78 0 0.0 1.0 0.00 0.00 0.00 91 1012.5
20260905105056 78 0 0.0 2.0 0.00 0.00 0.00 91 1012.4
20260905104557 78 0 0.0 4.0 0.00 0.00 0.00 91 1012.4
20260905104052 78 140 0.0 4.0 0.00 0.00 0.00 91 1012.5
20260905103552 78 0 0.0 3.0 0.00 0.00 0.00 91 1012.5
20260905103104 78 0 0.0 3.0 0.00 0.00 0.00 91 1012.4
20260905102551 78 0 0.0 3.0 0.00 0.00 0.00 91 1012.3
20260905102051 78 139 0.0 3.0 0.00 0.00 0.00 91 1012.3
20260905101606 78 0 1.0 3.0 0.00 0.00 0.00 91 1012.3
20260905101051 79 0 0.0 3.0 0.00 0.00 0.00 91 1012.4
20260905100553 79 0 0.0 2.0 0.00 0.00 0.00 91 1012.4
20260905100123 79 0 0.0 2.0 0.00 0.00 0.00 91 1012.4
20260905095553 79 0 0.0 2.0 0.00 0.00 0.00 90 1012.3
20260905095053 79 0 0.0 3.0 0.00 0.00 0.00 90 1012.2
20260905094600 79 0 0.0 4.0 0.00 0.00 0.00 90 1012.2
20260905094053 79 138 0.0 4.0 0.00 0.00 0.00 90 1012.2
20260905093552 79 138 0.0 4.0 0.00 0.00 0.00 90 1012.3
20260905093055 79 138 0.0 3.0 0.00 0.00 0.00 90 1012.2
20260905092552 79 0 0.0 3.0 0.00 0.00 0.00 90 1012.2
20260905092051 79 119 0.0 2.0 0.00 0.00 0.00 90 1012.3
20260905091613 79 0 0.0 2.0 0.00 0.00 0.00 90 1012.4
20260905091057 79 119 0.0 4.0 0.00 0.00 0.00 90 1012.4
20260905090554 79 119 0.0 4.0 0.00 0.00 0.00 90 1012.4
20260905090057 79 119 0.0 4.0 0.00 0.00 0.00 90 1012.4
20260905085552 79 118 0.0 4.0 0.00 0.00 0.00 89 1012.3
20260905085051 79 118 0.0 6.0 0.00 0.00 0.00 89 1012.3
20260905084601 79 0 1.0 6.0 0.00 0.00 0.00 89 1012.3
20260905084052 79 128 0.0 6.0 0.00 0.00 0.00 89 1012.2
20260905083553 79 117 1.0 5.0 0.00 0.00 0.00 89 1012.3
20260905083114 79 0 0.0 4.0 0.00 0.00 0.00 89 1012.4
20260905082551 79 121 0.0 5.0 0.00 0.00 0.00 89 1012.5
20260905082053 79 137 1.0 5.0 0.00 0.00 0.00 88 1012.5
20260905081612 79 120 1.0 4.0 0.00 0.00 0.00 88 1012.4
20260905081053 79 131 0.0 4.0 0.00 0.00 0.00 88 1012.5
20260905080553 79 132 1.0 5.0 0.00 0.00 0.00 88 1012.6
20260905080059 79 0 1.0 5.0 0.00 0.00 0.00 88 1012.6
20260905075552 79 163 1.0 7.0 0.00 0.00 0.00 88 1012.5
20260905075051 79 0 1.0 7.0 0.00 0.00 0.00 88 1012.6
20260905074601 79 126 1.0 5.0 0.00 0.00 0.00 87 1012.7
20260905074052 79 157 1.0 7.0 0.00 0.00 0.00 87 1012.8
20260905073551 80 122 1.0 7.0 0.00 0.00 0.00 87 1012.8
20260905073104 80 0 1.0 5.0 0.00 0.00 0.00 87 1012.9
20260905072558 80 185 1.0 6.0 0.00 0.00 0.00 87 1012.9
20260905072057 80 164 1.0 7.0 0.00 0.00 0.00 86 1012.9
20260905071615 80 144 0.0 7.0 0.00 0.00 0.00 86 1012.9
20260905071053 80 0 1.0 6.0 0.00 0.00 0.00 86 1013.0
20260905070553 80 0 2.0 6.0 0.00 0.00 0.00 86 1013.1
20260905070105 80 134 1.0 5.0 0.00 0.00 0.00 85 1013.1
20260905065553 80 0 0.0 5.0 0.00 0.00 0.00 85 1013.2
20260905065051 80 148 1.0 5.0 0.00 0.00 0.00 85 1013.1
20260905064621 80 173 0.0 7.0 0.00 0.00 0.00 84 1013.1
20260905064053 80 0 1.0 8.0 0.00 0.00 0.00 84 1013.0
20260905063552 80 192 0.0 8.0 0.00 0.00 0.00 84 1013.1
20260905063100 80 202 2.0 8.0 0.00 0.00 0.00 84 1013.1
20260905062551 80 171 1.0 7.0 0.00 0.00 0.00 84 1013.0
20260905062119 80 0 0.0 7.0 0.00 0.00 0.00 84 1013.1
20260905061608 80 124 1.0 7.0 0.00 0.00 0.00 83 1013.2
20260905061056 80 0 0.0 5.0 0.00 0.00 0.00 83 1013.2
20260905060600 80 184 1.0 5.0 0.00 0.00 0.00 83 1013.1
20260905060105 80 0 2.0 5.0 0.00 0.00 0.00 82 1013.1
20260905055554 80 200 0.0 5.0 0.00 0.00 0.00 82 1013.1
20260905055057 81 0 2.0 6.0 0.00 0.00 0.00 82 1013.0
20260905054709 81 219 2.0 11.0 0.00 0.00 0.00 81 1013.0
20260905054054 81 144 1.0 11.0 0.00 0.00 0.00 81 1013.1
20260905053552 81 151 0.0 8.0 0.00 0.00 0.00 80 1013.1
20260905053102 81 157 2.0 8.0 0.00 0.00 0.00 80 1013.1
20260905052551 81 150 1.0 14.0 0.00 0.00 0.00 79 1013.1
20260905052056 81 0 2.0 14.0 0.00 0.00 0.00 79 1013.2
20260905051609 81 210 2.0 10.0 0.00 0.00 0.00 78 1013.1
20260905051051 81 143 2.0 10.0 0.00 0.00 0.00 77 1013.1
20260905050554 82 141 4.0 9.0 0.00 0.00 0.00 76 1013.0
20260905050105 82 182 2.0 9.0 0.00 0.00 0.00 76 1013.1
20260905045552 82 147 3.0 9.0 0.00 0.00 0.00 75 1013.2
20260905045054 82 127 3.0 9.0 0.00 0.00 0.00 74 1013.1
20260905044607 82 148 3.0 8.0 0.00 0.00 0.00 74 1013.1
20260905044053 82 153 1.0 7.0 0.00 0.00 0.00 73 1013.1
20260905043551 82 167 2.0 8.0 0.00 0.00 0.00 73 1013.2
20260905043105 82 134 3.0 8.0 0.00 0.00 0.00 73 1013.2
20260905042554 82 161 2.0 8.0 0.00 0.00 0.00 73 1013.1
20260905042051 82 120 1.0 7.0 0.00 0.00 0.00 72 1013.2
20260905041604 82 116 0.0 7.0 0.00 0.00 0.00 72 1013.2
20260905041053 82 111 2.0 7.0 0.00 0.00 0.00 72 1013.1
20260905040551 83 123 1.0 7.0 0.00 0.00 0.00 71 1013.1
20260905040112 83 135 1.0 6.0 0.00 0.00 0.00 71 1013.0
20260905035553 83 138 1.0 7.0 0.00 0.00 0.00 71 1013.0
20260905035054 83 134 2.0 10.0 0.00 0.00 0.00 71 1012.9
20260905034607 83 150 2.0 10.0 0.00 0.00 0.00 71 1013.0
20260905034057 83 114 3.0 8.0 0.00 0.00 0.00 70 1013.1
20260905033554 83 134 2.0 8.0 0.00 0.00 0.00 70 1012.9
20260905033102 83 132 2.0 9.0 0.00 0.00 0.00 70 1012.8
20260905032558 83 113 1.0 9.0 0.00 0.00 0.00 70 1012.8
20260905032051 83 104 2.0 9.0 0.00 0.00 0.00 69 1012.7
20260905031600 83 143 2.0 8.0 0.00 0.00 0.00 69 1012.6
20260905031053 83 129 3.0 8.0 0.00 0.00 0.00 69 1012.7
20260905030551 84 117 1.0 7.0 0.00 0.00 0.00 69 1012.7
20260905030057 84 132 2.0 11.0 0.00 0.00 0.00 69 1012.7
20260905025551 84 139 1.0 11.0 0.00 0.00 0.00 69 1012.6
20260905025051 84 146 4.0 11.0 0.00 0.00 0.00 69 1012.4
20260905024612 84 149 2.0 9.0 0.00 0.00 0.00 69 1012.4
20260905024052 84 136 3.0 9.0 0.00 0.00 0.00 69 1012.3
20260905023551 84 107 1.0 7.0 0.00 0.00 0.00 69 1012.3
20260905023104 84 100 1.0 7.0 0.00 0.00 0.00 69 1012.2
20260905022552 84 112 1.0 3.0 0.00 0.00 0.00 69 1012.1
20260905022052 85 0 0.0 4.0 0.00 0.00 0.00 68 1012.1
20260905021559 85 114 1.0 4.0 0.00 0.00 0.00 68 1012.0
20260905021051 85 92 1.0 4.0 0.00 0.00 0.00 68 1012.0
20260905020551 85 88 1.0 6.0 0.00 0.00 0.00 67 1012.0
20260905020059 85 92 0.0 6.0 0.00 0.00 0.00 67 1012.0
20260905015553 85 96 1.0 6.0 0.00 0.00 0.00 66 1011.9
20260905015052 86 112 1.0 7.0 0.00 0.00 0.00 66 1011.8
20260905014603 86 0 1.0 7.0 0.00 0.00 0.00 66 1012.0
20260905014052 86 98 2.0 7.0 0.00 0.00 0.00 65 1012.0
20260905013552 86 96 2.0 9.0 0.00 0.00 0.00 65 1011.9
20260905013103 86 113 2.0 9.0 0.00 0.00 0.00 64 1011.8
20260905012551 87 98 2.0 8.0 0.00 0.00 0.00 63 1011.7
20260905012052 87 113 1.0 6.0 0.00 0.00 0.00 63 1011.6
20260905011605 87 94 2.0 8.0 0.00 0.00 0.00 62 1011.7
20260905011053 88 131 1.0 8.0 0.00 0.00 0.00 60 1011.6
20260905010553 88 80 3.0 8.0 0.00 0.00 0.00 59 1011.5
20260905010107 89 84 0.0 3.0 0.00 0.00 0.00 58 1011.5
20260905005552 89 0 0.0 4.0 0.00 0.00 0.00 57 1011.5
20260905005052 89 0 1.0 6.0 0.00 0.00 0.00 57 1011.4
20260905004603 90 94 1.0 8.0 0.00 0.00 0.00 57 1011.5
20260905004052 90 90 0.0 8.0 0.00 0.00 0.00 57 1011.5
20260905003551 90 84 2.0 8.0 0.00 0.00 0.00 56 1011.4
20260905003100 91 99 1.0 4.0 0.00 0.00 0.00 56 1011.2
20260905002553 91 105 0.0 7.0 0.00 0.00 0.00 57 1011.1
20260905002055 91 111 1.0 7.0 0.00 0.00 0.00 57 1011.1
20260905001605 91 135 0.0 3.0 0.00 0.00 0.00 56 1011.1
20260905001056 91 0 0.0 6.0 0.00 0.00 0.00 57 1011.0
20260905000552 92 102 2.0 7.0 0.00 0.00 0.00 56 1010.9
20260905000106 92 105 2.0 9.0 0.00 0.00 0.00 56 1010.8
20260904235555 92 81 2.0 9.0 0.00 0.00 0.00 56 1010.9
20260904235051 92 78 2.0 8.0 0.00 0.00 0.00 56 1010.9
20260904234605 92 100 1.0 9.0 0.00 0.00 0.00 56 1010.8
20260904234055 92 132 2.0 9.0 0.00 0.00 0.00 56 1010.8
20260904233554 92 130 2.0 8.0 0.00 0.00 0.00 55 1010.8
20260904233107 92 157 1.0 10.0 0.00 0.00 0.00 55 1010.9